Regional Weather Roundup
Issued by NWS

Home | Current Version | Previous Version | Graphics & Text | Print | Product List | Glossary On
Versions: 1 2 3 4 5 6 7 8 9 10 11 12 13 14 15 16 17 18 19 20 21 22 23 24 25 26 27 28 29 30 31 32 33 34 35 36 37 38 39 40 41 42 43 44 45 46 47 48 49 50
000
ASUS43 KFSD 230110
RWRSD

WEATHER ROUNDUP FOR SOUTH DAKOTA
NATIONAL WEATHER SERVICE SIOUX FALLS SD
800 PM CDT SUN OCT 22 2017

NOTE: "FAIR" INDICATES FEW OR NO CLOUDS BELOW 12,000 FEET WITH NO
SIGNIFICANT WEATHER AND/OR OBSTRUCTIONS TO VISIBILITY.


SDZ001>005-009-010-012>017-230200-
NORTHWEST AND NORTH CENTRAL SOUTH DAKOTA

CITY           SKY/WX    TMP DP  RH WIND       PRES   REMARKS
BUFFALO          N/A     50  44  80 NW14      29.76R
MOBRIDGE       CLOUDY    58  38  47 CALM      29.73R
$$

SDZ012>016-024>037-041>051-057-063-072>074-230200-
SOUTHWEST AND SOUTH CENTRAL SOUTH DAKOTA

CITY           SKY/WX    TMP DP  RH WIND       PRES   REMARKS
RAPID CTY ARPT CLEAR     57  29  34 W3        29.85R
PIERRE         CLEAR     59  34  39 S8        29.78S
CUSTER         CLOUDY    53  26  35 W8        29.96R
ELLSWORTH AFB  CLEAR     56  29  35 SW6       29.84R
PHILIP         CLEAR     59  33  37 SW10      29.79F
PINE RIDGE     CLOUDY    57  31  37 S7        29.91R
WINNER         FAIR      59  33  37 SW8       29.85F
$$

SDZ004>011-016>023-039-040-230200-
NORTHEAST SOUTH DAKOTA

CITY           SKY/WX    TMP DP  RH WIND       PRES   REMARKS
ABERDEEN       CLOUDY    60  31  33 S10       29.76F
WATERTOWN      CLOUDY    53  38  56 S7        29.82S
BROOKINGS      CLOUDY    54  31  41 S9        29.87R
SISSETON         N/A     60  31  33 SW9       29.77F
$$

SDZ017-020-022-023-036>040-048>070-230200-
SOUTHEAST SOUTH DAKOTA

CITY           SKY/WX    TMP DP  RH WIND       PRES   REMARKS
SIOUX FALLS    PTCLDY    56  32  40 S7        29.89S
HURON          CLOUDY    58  33  39 S9        29.81F
CHAMBERLAIN    CLEAR     51  34  51 S7        29.83S
MITCHELL       CLEAR     58  32  37 S7        29.84F
YANKTON        CLEAR     59  30  33 S7        29.90R
$$

ABBREVIATIONS USED IN REMARKS
   TC - TEMPERATURE IN CELSIUS
  WCI - WIND CHILL INDEX
   HX - HEAT INDEX
  VSB - VISIBILITY





USA.gov is the U.S. government's official web portal to all federal, state and local government web resources and services.